Weather History for ST CATHERINE, Egypt

Change the Weather History Date:

Friday, March 28, 2014

  Actual Average Record
Temperature  
Mean Temperature 62 °F -  
Max Temperature 75 °F - - ()
Min Temperature 48 °F - - ()
Degree Days  
Heating Degree Days 4    
Growing Degree Days 12 (Base 50)    
Moisture  
Dew Point 27 °F    
Average Humidity 27    
Maximum Humidity 46    
Minimum Humidity 16    
Precipitation  
Precipitation 0.00 in - - ()
Sea Level Pressure  
Sea Level Pressure 30.14 in    
Wind  
Wind Speed 5 mph ()    
Max Wind Speed 17 mph    
Max Gust Speed -    
T = Trace of Precipitation, MM = Missing Value Source: Averaged Metar Reports

Daily Weather History Graph

Daily Weather History Graph

Search for Another Location

Airport:

Trip Planner

Search our weather history database for the weather conditions in past years. The results will help you decide how hot, cold, wet, or windy it might be!

Date:

Astronomy

Mar. 28, 2014 Rise Set
Actual Time 5:38 AM EET 5:59 PM EET
Civil Twilight 5:15 AM EET 6:23 PM EET
Nautical Twilight 4:47 AM EET 6:50 PM EET
Astronomical Twilight 4:19 AM EET 7:18 PM EET
Moon 3:43 AM EET (3/28) 3:42 PM EET (3/28)
Length of Visible Light 13h 08m
Length of Day
12h 20m
Waning Crescent, 8% of the Moon is Illuminated
Mar 28
Waning Crescent
Mar 30
New
Apr 7
First Quarter
Apr 15
Full
Apr 22
Last Quarter

Hourly Weather History & Observations

Time (EET) Temp. Dew Point Humidity Pressure Visibility Wind Dir Wind Speed Gust Speed Precip Events Conditions
12:00 AM 53.6 °F 24.8 °F 33% 30.21 in - Calm Calm - N/A   Clear
1:00 AM 51.8 °F 26.6 °F 38% 30.21 in - Calm Calm - N/A   Clear
2:00 AM 51.8 °F 28.4 °F 41% 30.18 in - Calm Calm - N/A   Clear
3:00 AM 48.2 °F 28.4 °F 46% 30.15 in - Calm Calm - N/A   Clear
4:00 AM 50.0 °F 24.8 °F 37% 30.15 in - Calm Calm - N/A   Clear
5:00 AM 53.6 °F 24.8 °F 33% 30.15 in - SSW 5.8 mph - N/A   Clear
6:00 AM 53.6 °F 23.0 °F 30% 30.15 in - South 6.9 mph - N/A   Clear
8:00 AM 64.4 °F 30.2 °F 28% 30.15 in - Calm Calm - N/A   Clear
11:00 AM 71.6 °F 28.4 °F 20% 30.15 in - East 12.7 mph - N/A   Clear
12:00 PM 71.6 °F 30.2 °F 22% 30.18 in - East 11.5 mph - N/A   Clear
1:00 PM 75.2 °F 26.6 °F 17% 30.12 in - ESE 17.3 mph - N/A   Clear
2:00 PM 75.2 °F 26.6 °F 17% 30.12 in - South 12.7 mph - N/A   Clear
3:00 PM 73.4 °F 24.8 °F 16% 30.12 in - NNE 12.7 mph - N/A   Clear
4:00 PM 73.4 °F 24.8 °F 16% 30.09 in - NNW 9.2 mph - N/A   Clear
5:00 PM 73.4 °F 26.6 °F 18% 30.06 in - North 10.4 mph - N/A   Clear
6:00 PM 69.8 °F 32.0 °F 25% 30.06 in - ESE 8.1 mph - N/A   Clear
7:00 PM 68.0 °F 26.6 °F 21% 30.12 in - WNW 10.4 mph - N/A   Clear
8:00 PM 66.2 °F 28.4 °F 24% 30.12 in - West 9.2 mph - N/A   Clear
9:00 PM 62.6 °F 30.2 °F 30% 30.12 in - WNW 8.1 mph - N/A   Clear
10:00 PM 62.6 °F 30.2 °F 30% 30.12 in - West 9.2 mph - N/A   Clear
11:00 PM 62.6 °F 30.2 °F 30% 30.12 in - WNW 5.8 mph - N/A   Clear